Regional Weather Roundup
Issued by NWS

Home | Current Version | Previous Version | Graphics & Text | Print | Product List | Glossary On
Versions: 1 2 3 4 5 6 7 8 9 10 11 12 13 14 15 16 17 18 19 20 21 22 23 24 25 26 27 28 29 30 31 32 33 34 35 36 37 38 39 40 41 42 43 44 45 46 47 48 49 50
434
ASUS43 KMKX 221221
RWRWI

WISCONSIN REGIONAL WEATHER ROUNDUP
NATIONAL WEATHER SERVICE MILWAUKEE/SULLIVAN WI
700 AM CDT FRI MAY 22 2015

NOTE: "FAIR" INDICATES FEW OR NO CLOUDS BELOW 12,000 FEET WITH NO
SIGNIFICANT WEATHER AND/OR OBSTRUCTIONS TO VISIBILITY.

WIZ001-002-006>008-014>016-023>028-221300-
NORTHWEST WISCONSIN

CITY           SKY/WX    TMP DP  RH WIND       PRES   REMARKS
SUPERIOR ARPT  SUNNY     40  37  89 CALM      30.21R
6HR MIN TEMP:  32; 6HR MAX TEMP:  41;

ASHLAND        SUNNY     42  34  73 CALM      30.19R
6HR MIN TEMP:  33; 6HR MAX TEMP:  42;

HAYWARD        SUNNY     37  33  85 N5        30.19R WCI  33
6HR MIN TEMP:  32; 6HR MAX TEMP:  40;

SIREN          SUNNY     39  36  89 CALM      30.19S
6HR MIN TEMP:  33; 6HR MAX TEMP:  42;

CUMBERLAND     SUNNY     41  37  87 CALM      30.19R
RICE LAKE      SUNNY     44  40  85 CALM      30.20R
6HR MIN TEMP:  37; 6HR MAX TEMP:  45;

CHETEK         SUNNY     42  39  89 CALM      30.19R
6HR MIN TEMP:  36; 6HR MAX TEMP:  46;

LADYSMITH      SUNNY     40  38  92 CALM      30.20R
6HR MIN TEMP:  35; 6HR MAX TEMP:  43;

EAU CLAIRE     SUNNY     45  40  82 NE5       30.18R
6HR MIN TEMP:  38; 6HR MAX TEMP:  46;

MENOMONIE      SUNNY     46  38  75 NW3       30.19R
6HR MIN TEMP:  42; 6HR MAX TEMP:  54;

NEW RICHMOND   SUNNY     44  39  81 CALM      30.19R
6HR MIN TEMP:  38; 6HR MAX TEMP:  51;

OSCEOLA        SUNNY     42  42 100 CALM      30.22R
6HR MIN TEMP:  34; 6HR MAX TEMP:  45;

$$

WIZ003>005-009-010-017-018-221300-
NORTH CENTRAL WISCONSIN

CITY           SKY/WX    TMP DP  RH WIND       PRES   REMARKS
MANITOWISH WTR SUNNY     37  37 100 CALM      30.18S
6HR MIN TEMP:  29; 6HR MAX TEMP:  37;

ARBOR VITAE    SUNNY     40  34  76 CALM      30.18R
6HR MIN TEMP:  32; 6HR MAX TEMP:  42;

WOODRUFF       SUNNY     40  34  76 CALM      30.18R
6HR MIN TEMP:  32; 6HR MAX TEMP:  42;

RHINELANDER    SUNNY     41  31  67 CALM      30.19R
6HR MIN TEMP:  31; 6HR MAX TEMP:  41;

EAGLE RIVER    SUNNY     37  32  82 CALM      30.18R
6HR MIN TEMP:  28; 6HR MAX TEMP:  41;

LAND O LAKES   SUNNY     36  32  85 CALM      30.20R
6HR MIN TEMP:  27; 6HR MAX TEMP:  36;

PHILLIPS       SUNNY     36  35  94 CALM      30.18R
6HR MIN TEMP:  32; 6HR MAX TEMP:  37;

TOMAHAWK       SUNNY     33  32  96 CALM      30.19R
6HR MIN TEMP:  28; 6HR MAX TEMP:  33;

MEDFORD        SUNNY     40  37  89 CALM      30.19R
6HR MIN TEMP:  33; 6HR MAX TEMP:  40;

MERRILL        SUNNY     37  35  95 CALM      30.20R
$$

WIZ029-030-035-036-043>047-221300-
CENTRAL WISCONSIN

CITY           SKY/WX    TMP DP  RH WIND       PRES   REMARKS
WAUSAU         SUNNY     41  36  82 E6        30.18R
6HR MIN TEMP:  36; 6HR MAX TEMP:  44;

MOSINEE        SUNNY     41  36  81 VRB5      30.20R
MARSHFIELD     SUNNY     46  38  73 E6        30.19R
6HR MIN TEMP:  40; 6HR MAX TEMP:  48;

STEVENS POINT  SUNNY     39  34  82 CALM      30.20R
6HR MIN TEMP:  32; 6HR MAX TEMP:  43;

WAUPACA        SUNNY     43  39  86 CALM      30.21R
6HR MIN TEMP:  37; 6HR MAX TEMP:  44;

WAUTOMA        SUNNY     42  37  82 CALM      30.21R
6HR MIN TEMP:  34; 6HR MAX TEMP:  43;

WISC RAPIDS    SUNNY     45  34  65 E5        30.21R
6HR MIN TEMP:  36; 6HR MAX TEMP:  46;

CAMP DOUGLAS   SUNNY     40  40 100 E2        30.19R
6HR MIN TEMP:  32; 6HR MAX TEMP:  40;

$$

WIZ011>013-019>022-031-037>040-048>050-221300-
NORTHEAST WISCONSIN

CITY           SKY/WX    TMP DP  RH WIND       PRES   REMARKS
ANTIGO         SUNNY     38  32  80 CALM      30.20R
SHAWANO        SUNNY     43  37  80 CALM      30.21R
6HR MIN TEMP:  37; 6HR MAX TEMP:  43;

OCONTO         SUNNY     41  35  78 CALM      30.19S
6HR MIN TEMP:  29; 6HR MAX TEMP:  41;

STURGEON BAY   SUNNY     46  27  46 N8        30.22R
6HR MIN TEMP:  36; 6HR MAX TEMP:  45;

GREEN BAY      SUNNY     45  38  76 CALM      30.20R
6HR MIN TEMP:  37; 6HR MAX TEMP:  45;

MANITOWOC      SUNNY     44  37  76 CALM      30.21R
6HR MIN TEMP:  36; 6HR MAX TEMP:  44;

APPLETON       SUNNY     43  32  65 N6        30.20R
CLINTONVILLE   SUNNY     41  37  87 CALM      30.21R
OSHKOSH        SUNNY     47  36  65 CALM      30.19R
6HR MIN TEMP:  39; 6HR MAX TEMP:  49;

$$

WIZ032>034-041-042-053>061-221300-
SOUTHWEST WISCONSIN

CITY           SKY/WX    TMP DP  RH WIND       PRES   REMARKS
LA CROSSE      SUNNY     48  42  80 SE5       30.17R
6HR MIN TEMP:  43; 6HR MAX TEMP:  52;

SPARTA         SUNNY     38  37  94 CALM      30.19R
6HR MIN TEMP:  32; 6HR MAX TEMP:  40;

VIROQUA        SUNNY     48  41  78 E8        30.17R
6HR MIN TEMP:  45; 6HR MAX TEMP:  54;

BOSCOBEL       SUNNY     43  42  97 CALM      30.19R
6HR MIN TEMP:  37; 6HR MAX TEMP:  43;

PRAIRIE DU CHI FAIR      44  40  88 CALM      30.18R
6HR MIN TEMP:  41; 6HR MAX TEMP:  48;

PLATTEVILLE    SUNNY     49  42  78 E3        30.17R
6HR MIN TEMP:  44; 6HR MAX TEMP:  54;

$$

WIZ056-057-062-063-064-067-068-221300-
SOUTH CENTRAL WISCONSIN

CITY           SKY/WX    TMP DP  RH WIND       PRES   REMARKS
REEDSBURG      SUNNY     43  39  85 CALM      30.19R
6HR MIN TEMP:  38; 6HR MAX TEMP:  51;

BARABOO/DELLS  SUNNY     45  37  73 CALM      30.19R
6HR MIN TEMP:  38; 6HR MAX TEMP:  49;

LONE ROCK      SUNNY     45  41  86 CALM      30.19R
6HR MIN TEMP:  38; 6HR MAX TEMP:  51;

MINERAL POINT  SUNNY     50  36  57 E5        30.18R
MADISON        SUNNY     46  36  68 N5        30.19R
6HR MIN TEMP:  40; 6HR MAX TEMP:  51;

MIDDLETON      SUNNY     49  35  58 CALM      30.19R
6HR MIN TEMP:  40; 6HR MAX TEMP:  55;

WATERTOWN      SUNNY     45  35  67 CALM      30.18R
6HR MIN TEMP:  37; 6HR MAX TEMP:  47;

MONROE         SUNNY     48  34  57 NE7       30.17R
JANESVILLE     SUNNY     48  34  57 CALM      30.17R
$$

WIZ051-052-058>065-066-070>072-221300-
SOUTHEAST WISCONSIN

CITY           SKY/WX    TMP DP  RH WIND       PRES   REMARKS
MILWAUKEE      SUNNY     48  34  58 NE8       30.19R
6HR MIN TEMP:  43; 6HR MAX TEMP:  48;

WAUKESHA       SUNNY     45  32  61 E3        30.19R
MILWAUKEE/TIMM SUNNY     45  32  61 NE5       30.20R
RACINE         SUNNY     48  37  65 NE8       30.19R
6HR MIN TEMP:  42; 6HR MAX TEMP:  48;

BURLINGTON     SUNNY     44  37  76 CALM      30.17R
6HR MIN TEMP:  37; 6HR MAX TEMP:  49;

KENOSHA        SUNNY     48  38  68 NE5       30.17R
6HR MIN TEMP:  41; 6HR MAX TEMP:  48;

FOND DU LAC    SUNNY     46  32  58 CALM      30.20R
6HR MIN TEMP:  36; 6HR MAX TEMP:  47;

SHEBOYGAN      SUNNY     45  34  65 CALM      30.19R
6HR MIN TEMP:  33; 6HR MAX TEMP:  45;

WEST BEND      SUNNY     41  36  81 CALM      30.19R
JUNEAU         SUNNY     45  33  61 CALM      30.20R
6HR MIN TEMP:  41; 6HR MAX TEMP:  47;

$$

LSZ147-162-221300-
LAKE SUPERIOR

STATION/POSITION TIME  TEMP    WIND        PRES    WAVE
                       AIR SEA DIR/SP/G            HT/PER
                 (UTC) (F)     (DEG/KT/KT) (MB)    (FT/S)
W MID LAKE BUOY  1150   38 36   50/  6/  6   N/A     0
DEVILS ISLAND    1200   40      30/  3/  4   N/A
PORT WING        1100   36     170/  3/  4   N/A
SAXON HARBOR     1100   36     200/  2/  4   N/A
$$

LMZ867-665-643>646-221300-
LAKE MICHIGAN

STATION/POSITION TIME  TEMP    WIND        PRES    WAVE
                       AIR SEA DIR/SP/G            HT/PER



USA.gov is the U.S. government's official web portal to all federal, state and local government web resources and services.